* Astronomy

Members Login
Username 
 
Password 
    Remember Me  
Post Info TOPIC: Asteroid 2012 LD1


L

Posts: 131433
Date:
Asteroid 2012 LD1
Permalink  
 


Orbital elements:
2012 LD1                                                 Earth MOID = 0.0833 AU
Epoch 2012 Mar. 14.0 TT = JDT 2456000.5                 MPC
M 349.53903              (2000.0)            P               Q
n   0.76202952     Peri.  302.77102     -0.96100754     +0.13848378
a   1.1871024      Node   246.18817     -0.06622588     -0.95563387
e   0.1172108      Incl.   15.16599     -0.26847466     -0.25997337
P   1.29           H   21.8           G   0.15           U   7

MPEC 2012 - L25



__________________
Page 1 of 1  sorted by
 
Quick Reply

Please log in to post quick replies.



Create your own FREE Forum
Report Abuse
Powered by ActiveBoard